Time,TemperatureF,DewpointF,PressureIn,WindDirection,WindDirectionDegrees,WindSpeedMPH,WindSpeedGustMPH,Humidity,HourlyPrecipIn,Conditions,Clouds,dailyrainin,SoftwareType,DateUTC
2013-02-20 00:00:00,39.0,35.0,30.04,WNW,300,28.0,-999.0,84,-99.99,,,-99.99,,2013-02-20 00:00:00,
2013-02-20 00:21:00,39.0,35.0,30.04,WNW,300,28.0,-999.0,84,-99.99,,,-99.99,,2013-02-20 00:21:00,
2013-02-20 00:31:00,39.0,35.0,30.04,WNW,300,28.0,-999.0,84,-99.99,,,-99.99,,2013-02-20 00:31:00,
2013-02-20 00:41:00,39.0,35.0,30.04,WNW,300,28.0,-999.0,84,-99.99,,,-99.99,,2013-02-20 00:41:00,
2013-02-20 00:51:00,39.0,35.0,30.04,WNW,300,28.0,-999.0,84,-99.99,,,-99.99,,2013-02-20 00:51:00,
2013-02-20 01:00:00,38.0,36.0,30.04,West,280,16.0,-999.0,89,-99.99,,,-99.99,,2013-02-20 01:00:00,
2013-02-20 01:21:00,38.0,36.0,30.04,West,280,16.0,-999.0,89,-99.99,,,-99.99,,2013-02-20 01:21:00,
2013-02-20 01:31:00,38.0,36.0,30.04,West,280,16.0,-999.0,89,-99.99,,,-99.99,,2013-02-20 01:31:00,
2013-02-20 01:41:00,38.0,36.0,30.04,West,280,16.0,-999.0,89,-99.99,,,-99.99,,2013-02-20 01:41:00,
2013-02-20 01:51:00,38.0,36.0,30.04,West,280,16.0,-999.0,89,-99.99,,,-99.99,,2013-02-20 01:51:00,
2013-02-20 02:00:00,38.0,36.0,30.05,West,280,17.0,-999.0,91,-99.99,,,-99.99,,2013-02-20 02:00:00,
2013-02-20 02:21:00,38.0,36.0,30.05,West,280,17.0,-999.0,91,-99.99,,,-99.99,,2013-02-20 02:21:00,
2013-02-20 02:31:00,38.0,36.0,30.05,West,280,17.0,-999.0,91,-99.99,,,-99.99,,2013-02-20 02:31:00,
2013-02-20 02:41:00,38.0,36.0,30.05,West,280,17.0,-999.0,91,-99.99,,,-99.99,,2013-02-20 02:41:00,
2013-02-20 02:52:00,38.0,36.0,30.05,West,280,17.0,-999.0,91,-99.99,,,-99.99,,2013-02-20 02:52:00,
2013-02-20 03:00:00,38.0,35.0,30.04,WNW,300,10.0,-999.0,87,-99.99,,,-99.99,,2013-02-20 03:00:00,
2013-02-20 03:21:00,38.0,35.0,30.04,WNW,300,10.0,-999.0,87,-99.99,,,-99.99,,2013-02-20 03:21:00,
2013-02-20 03:31:00,38.0,35.0,30.04,WNW,300,10.0,-999.0,87,-99.99,,,-99.99,,2013-02-20 03:31:00,
2013-02-20 03:41:00,38.0,35.0,30.04,WNW,300,10.0,-999.0,87,-99.99,,,-99.99,,2013-02-20 03:41:00,
2013-02-20 03:51:00,38.0,35.0,30.04,WNW,300,10.0,-999.0,87,-99.99,,,-99.99,,2013-02-20 03:51:00,
2013-02-20 04:00:00,38.0,36.0,30.01,NNE,20,3.0,-999.0,90,-99.99,,,-99.99,,2013-02-20 04:00:00,
2013-02-20 04:21:00,38.0,36.0,30.01,NNE,20,3.0,-999.0,90,-99.99,,,-99.99,,2013-02-20 04:21:00,
2013-02-20 04:31:00,38.0,36.0,30.01,NNE,20,3.0,-999.0,90,-99.99,,,-99.99,,2013-02-20 04:31:00,
2013-02-20 04:41:00,38.0,36.0,30.01,NNE,20,3.0,-999.0,90,-99.99,,,-99.99,,2013-02-20 04:41:00,
2013-02-20 04:51:00,38.0,36.0,30.01,NNE,20,3.0,-999.0,90,-99.99,,,-99.99,,2013-02-20 04:51:00,
2013-02-20 05:00:00,38.0,36.0,30.00,SE,130,6.0,-999.0,91,-99.99,,,-99.99,,2013-02-20 05:00:00,
2013-02-20 05:22:00,38.0,36.0,30.00,SE,130,6.0,-999.0,91,-99.99,,,-99.99,,2013-02-20 05:22:00,
2013-02-20 05:31:00,38.0,36.0,30.00,SE,130,6.0,-999.0,91,-99.99,,,-99.99,,2013-02-20 05:31:00,
2013-02-20 05:42:00,38.0,36.0,30.00,SE,130,6.0,-999.0,91,-99.99,,,-99.99,,2013-02-20 05:42:00,
2013-02-20 05:52:00,38.0,36.0,30.00,SE,130,6.0,-999.0,91,-99.99,,,-99.99,,2013-02-20 05:52:00,
2013-02-20 06:00:00,39.0,37.0,29.96,SE,130,11.0,-999.0,93,-99.99,,,-99.99,,2013-02-20 06:00:00,
2013-02-20 06:21:00,39.0,37.0,29.96,SE,130,11.0,-999.0,93,-99.99,,,-99.99,,2013-02-20 06:21:00,
2013-02-20 06:31:00,39.0,37.0,29.96,SE,130,11.0,-999.0,93,-99.99,,,-99.99,,2013-02-20 06:31:00,
2013-02-20 06:41:00,39.0,37.0,29.96,SE,130,11.0,-999.0,93,-99.99,,,-99.99,,2013-02-20 06:41:00,
2013-02-20 06:51:00,39.0,37.0,29.96,SE,130,11.0,-999.0,93,-99.99,,,-99.99,,2013-02-20 06:51:00,
2013-02-20 07:00:00,37.0,36.0,29.95,South,170,14.0,-999.0,95,-99.99,,,-99.99,,2013-02-20 07:00:00,
2013-02-20 07:21:00,37.0,36.0,29.95,South,170,14.0,-999.0,95,-99.99,,,-99.99,,2013-02-20 07:21:00,
2013-02-20 07:31:00,37.0,36.0,29.95,South,170,14.0,-999.0,95,-99.99,,,-99.99,,2013-02-20 07:31:00,
2013-02-20 07:41:00,37.0,36.0,29.95,South,170,14.0,-999.0,95,-99.99,,,-99.99,,2013-02-20 07:41:00,
2013-02-20 07:51:00,37.0,36.0,29.95,South,170,14.0,-999.0,95,-99.99,,,-99.99,,2013-02-20 07:51:00,
2013-02-20 08:00:00,37.0,35.0,29.94,SE,140,11.0,-999.0,94,-99.99,,,-99.99,,2013-02-20 08:00:00,
2013-02-20 08:21:00,37.0,35.0,29.94,SE,140,11.0,-999.0,94,-99.99,,,-99.99,,2013-02-20 08:21:00,
2013-02-20 08:31:00,37.0,35.0,29.94,SE,140,11.0,-999.0,94,-99.99,,,-99.99,,2013-02-20 08:31:00,
2013-02-20 08:41:00,37.0,35.0,29.94,SE,140,11.0,-999.0,94,-99.99,,,-99.99,,2013-02-20 08:41:00,
2013-02-20 08:51:00,37.0,35.0,29.94,SE,140,11.0,-999.0,94,-99.99,,,-99.99,,2013-02-20 08:51:00,
2013-02-20 09:00:00,36.0,36.0,29.91,SE,130,11.0,-999.0,97,-99.99,,,-99.99,,2013-02-20 09:00:00,
2013-02-20 09:21:00,36.0,36.0,29.91,SE,130,11.0,-999.0,97,-99.99,,,-99.99,,2013-02-20 09:21:00,
2013-02-20 09:31:00,36.0,36.0,29.91,SE,130,11.0,-999.0,97,-99.99,,,-99.99,,2013-02-20 09:31:00,
2013-02-20 09:41:00,36.0,36.0,29.91,SE,130,11.0,-999.0,97,-99.99,,,-99.99,,2013-02-20 09:41:00,
2013-02-20 09:51:00,36.0,36.0,29.91,SE,130,11.0,-999.0,97,-99.99,,,-99.99,,2013-02-20 09:51:00,
2013-02-20 10:00:00,36.0,36.0,29.89,SE,130,16.0,-999.0,99,-99.99,,,-99.99,,2013-02-20 10:00:00,
2013-02-20 10:21:00,36.0,36.0,29.89,SE,130,16.0,-999.0,99,-99.99,,,-99.99,,2013-02-20 10:21:00,
2013-02-20 10:31:00,36.0,36.0,29.89,SE,130,16.0,-999.0,99,-99.99,,,-99.99,,2013-02-20 10:31:00,
2013-02-20 10:41:00,36.0,36.0,29.89,SE,130,16.0,-999.0,99,-99.99,,,-99.99,,2013-02-20 10:41:00,
2013-02-20 10:51:00,36.0,36.0,29.89,SE,130,16.0,-999.0,99,-99.99,,,-99.99,,2013-02-20 10:51:00,
2013-02-20 11:00:00,36.0,36.0,29.85,ESE,120,23.0,-999.0,99,-99.99,,,-99.99,,2013-02-20 11:00:00,
2013-02-20 11:21:00,36.0,36.0,29.85,ESE,120,23.0,-999.0,99,-99.99,,,-99.99,,2013-02-20 11:21:00,
2013-02-20 11:31:00,36.0,36.0,29.85,ESE,120,23.0,-999.0,99,-99.99,,,-99.99,,2013-02-20 11:31:00,
2013-02-20 11:41:00,36.0,36.0,29.85,ESE,120,23.0,-999.0,99,-99.99,,,-99.99,,2013-02-20 11:41:00,
2013-02-20 11:52:00,36.0,36.0,29.85,ESE,120,23.0,-999.0,99,-99.99,,,-99.99,,2013-02-20 11:52:00,
2013-02-20 12:00:00,35.0,35.0,29.80,East,100,28.0,-999.0,100,-99.99,,,-99.99,,2013-02-20 12:00:00,
2013-02-20 12:21:00,35.0,35.0,29.80,East,100,28.0,-999.0,100,-99.99,,,-99.99,,2013-02-20 12:21:00,
2013-02-20 12:31:00,35.0,35.0,29.80,East,100,28.0,-999.0,100,-99.99,,,-99.99,,2013-02-20 12:31:00,
2013-02-20 12:41:00,35.0,35.0,29.80,East,100,28.0,-999.0,100,-99.99,,,-99.99,,2013-02-20 12:41:00,
2013-02-20 12:52:00,35.0,35.0,29.80,East,100,28.0,-999.0,100,-99.99,,,-99.99,,2013-02-20 12:52:00,
2013-02-20 13:00:00,36.0,36.0,29.74,SE,130,23.0,-999.0,99,-99.99,,,-99.99,,2013-02-20 13:00:00,
2013-02-20 13:22:00,36.0,36.0,29.74,SE,130,23.0,-999.0,99,-99.99,,,-99.99,,2013-02-20 13:22:00,
2013-02-20 13:31:00,36.0,36.0,29.74,SE,130,23.0,-999.0,99,-99.99,,,-99.99,,2013-02-20 13:31:00,
2013-02-20 13:42:00,36.0,36.0,29.74,SE,130,23.0,-999.0,99,-99.99,,,-99.99,,2013-02-20 13:42:00,
2013-02-20 13:51:00,36.0,36.0,29.74,SE,130,23.0,-999.0,99,-99.99,,,-99.99,,2013-02-20 13:51:00,
2013-02-20 14:00:00,36.0,36.0,29.68,SE,140,24.0,-999.0,99,-99.99,,,-99.99,,2013-02-20 14:00:00,
2013-02-20 14:21:00,36.0,36.0,29.68,SE,140,24.0,-999.0,99,-99.99,,,-99.99,,2013-02-20 14:21:00,
2013-02-20 14:32:00,36.0,36.0,29.68,SE,140,24.0,-999.0,99,-99.99,,,-99.99,,2013-02-20 14:32:00,
2013-02-20 14:42:00,36.0,36.0,29.68,SE,140,24.0,-999.0,99,-99.99,,,-99.99,,2013-02-20 14:42:00,
2013-02-20 14:52:00,36.0,36.0,29.68,SE,140,24.0,-999.0,99,-99.99,,,-99.99,,2013-02-20 14:52:00,
2013-02-20 15:00:00,37.0,37.0,29.59,SE,140,25.0,-999.0,99,-99.99,,,-99.99,,2013-02-20 15:00:00,
2013-02-20 15:22:00,37.0,37.0,29.59,SE,140,25.0,-999.0,99,-99.99,,,-99.99,,2013-02-20 15:22:00,
2013-02-20 15:31:00,37.0,37.0,29.59,SE,140,25.0,-999.0,99,-99.99,,,-99.99,,2013-02-20 15:31:00,
2013-02-20 15:41:00,37.0,37.0,29.59,SE,140,25.0,-999.0,99,-99.99,,,-99.99,,2013-02-20 15:41:00,
2013-02-20 15:51:00,37.0,37.0,29.59,SE,140,25.0,-999.0,99,-99.99,,,-99.99,,2013-02-20 15:51:00,
2013-02-20 16:00:00,36.0,36.0,29.53,SE,130,24.0,-999.0,100,-99.99,,,-99.99,,2013-02-20 16:00:00,
2013-02-20 16:21:00,36.0,36.0,29.53,SE,130,24.0,-999.0,100,-99.99,,,-99.99,,2013-02-20 16:21:00,
2013-02-20 16:32:00,36.0,36.0,29.53,SE,130,24.0,-999.0,100,-99.99,,,-99.99,,2013-02-20 16:32:00,
2013-02-20 16:41:00,36.0,36.0,29.53,SE,130,24.0,-999.0,100,-99.99,,,-99.99,,2013-02-20 16:41:00,
2013-02-20 16:51:00,36.0,36.0,29.53,SE,130,24.0,-999.0,100,-99.99,,,-99.99,,2013-02-20 16:51:00,
2013-02-20 17:00:00,36.0,36.0,29.48,SSE,160,21.0,-999.0,100,-99.99,,,-99.99,,2013-02-20 17:00:00,
2013-02-20 17:21:00,36.0,36.0,29.48,SSE,160,21.0,-999.0,100,-99.99,,,-99.99,,2013-02-20 17:21:00,
2013-02-20 17:32:00,36.0,36.0,29.48,SSE,160,21.0,-999.0,100,-99.99,,,-99.99,,2013-02-20 17:32:00,
2013-02-20 17:41:00,36.0,36.0,29.48,SSE,160,21.0,-999.0,100,-99.99,,,-99.99,,2013-02-20 17:41:00,
2013-02-20 17:51:00,36.0,36.0,29.48,SSE,160,21.0,-999.0,100,-99.99,,,-99.99,,2013-02-20 17:51:00,
2013-02-20 18:00:00,37.0,37.0,29.48,SE,140,22.0,-999.0,100,-99.99,,,-99.99,,2013-02-20 18:00:00,
2013-02-20 18:21:00,37.0,37.0,29.48,SE,140,22.0,-999.0,100,-99.99,,,-99.99,,2013-02-20 18:21:00,
2013-02-20 18:31:00,37.0,37.0,29.48,SE,140,22.0,-999.0,100,-99.99,,,-99.99,,2013-02-20 18:31:00,
2013-02-20 18:41:00,37.0,37.0,29.48,SE,140,22.0,-999.0,100,-99.99,,,-99.99,,2013-02-20 18:41:00,
2013-02-20 18:51:00,37.0,37.0,29.48,SE,140,22.0,-999.0,100,-99.99,,,-99.99,,2013-02-20 18:51:00,
2013-02-20 23:00:00,38.0,37.0,29.42,SSW,210,7.0,-999.0,99,-99.99,,,-99.99,,2013-02-20 23:00:00,
2013-02-20 23:21:00,38.0,37.0,29.42,SSW,210,7.0,-999.0,99,-99.99,,,-99.99,,2013-02-20 23:21:00,
2013-02-20 23:31:00,38.0,37.0,29.42,SSW,210,7.0,-999.0,99,-99.99,,,-99.99,,2013-02-20 23:31:00,
2013-02-20 23:42:00,38.0,37.0,29.42,SSW,210,7.0,-999.0,99,-99.99,,,-99.99,,2013-02-20 23:42:00,
2013-02-20 23:51:00,38.0,37.0,29.42,SSW,210,7.0,-999.0,99,-99.99,,,-99.99,,2013-02-20 23:51:00,